{"data":{"norad_id":66895,"epoch":"2026-05-24T22:54:04.047264Z","epoch_age_seconds":72786,"freshness":"FRESH","line1":"1 66895U 25283T   26144.95421351  .00023570  00000+0  70602-3 0  9995","line2":"2 66895  53.1592  29.7068 0000911  97.8256 262.2850 15.34423029 27525","mean_motion":15.34423029,"eccentricity":9.11e-5,"inclination_deg":53.1592,"raan_deg":29.7068,"arg_perigee_deg":97.8256,"mean_anomaly_deg":262.285,"bstar":0.00070602,"rev_number":2752,"period_min":93.84634959099,"perigee_km":462.01159971159,"apogee_km":463.25798833246,"semimajor_km":6840.771794022,"source":"CELESTRAK","updated_at":"2026-05-25T13:38:21.381771Z"}}